星链-30077 (STARLINK-30077 )

导读

STARLINK-30077是美国SpaceX星链星座的卫星,于2023年7月28日发射入轨,属于星链第二代组网卫星,主要为全球提供高速低延迟互联网服务,尤其覆盖偏远地区与移动场景,是星链大规模商业组网进程中的组成单元,依托近地轨道部署,实现全球网络互联覆盖。

Basic Information
目录编号:
57460
目录名称:
STARLINK-30077
国际标识:
2023-107D
轨道中心:
EARTH
卫星名称:
星链-30077
卫星全名:
星链-30077 (STARLINK-30077 )
卫星状态:
在轨 (已飞行1135 天)
发射日期:
2023-07-28 UTC
国别 :
美国 (US)
星等 :
--
Orbit Information
数据来源 国际轨道数据
星历时间: 2026-09-05T11:00:16+0800
15小时前
查看轨道信息
半长轴: 6861.111km
偏心率: 0.0001186
轨道倾角: 43.000°
近地点辐角 283.245°
升交点赤经 42.391°
平近点角 76.827°
近地点: 482.16km
远地点: 483.788km
周期: 94.265分钟
每日圈数: 15.276054
Detailed Information
固有亮度:
5
最大亮度:
0.3
卫星平台:
Starlink v2.0 mini
覆盖范围:
全球
运营商:
太空探索技术公司
运营商所在国:
美国
制造商(研发单位):
太空探索技术公司
制造商所在国:
美国
使用方式:
暂无
Satellite Introduction
星链(Starlink)计划是由太空探索技术公司(SpaceX)提出的一个巨型低轨卫星互联网星座项目,计划在2019年至2024年间在太空搭建由约1.2万颗卫星组成的“星链”网络,其中1584颗将部署在地球上空550千米处的近地轨道,并从2020年开始工作。该卫星仍在工作。
2D Orbit Map
3D Orbit Map
Orbit Altitude Analysis Chart
Orbit Inclination Analysis Chart
Orbit Comprehensive Analysis Chart
View Comprehensive Chart
Conjunction Data List
Event ID Objects TCA Miss Dist (km) Collision Risk Probability Collision Risk Index (CRI) Action
CDM_260901-120705-746006-186521
2026-09-01T
12:07:41+0000
0.562 km
远距离
1.040991E-4 高风险 0.75
CDM_260907-031605-746006-648821
2026-09-07T
03:16:56+0000
0.564 km
远距离
3.687108E-5 中风险 0.66
CDM_260901-103305-746006-186521
2026-09-01T
10:33:32+0000
1.058 km
极远距离
1.424266E-5 中风险 0.58
CDM_260907-053805-746006-648821
2026-09-07T
05:38:10+0000
1.084 km
极远距离
4.283589E-6 低风险 0.48
CDM_260901-085905-746006-186521
2026-09-01T
08:59:22+0000
1.818 km
极远距离
2.457581E-6 低风险 0.43
CDM_260901-072505-746006-186521
2026-09-01T
07:25:13+0000
2.655 km
极远距离
1.095228E-6 低风险 0.36
CDM_260907-040405-746006-648821
2026-09-07T
04:04:01+0000
2.526 km
极远距离
4.852301E-7 极低风险 0.29
CDM_260907-045105-746006-648821
2026-09-07T
04:51:05+0000
2.908 km
极远距离
4.084511E-7 极低风险 0.27